• In Uzbekistan
  • List of Countries
  • For 7 days
  • Water Temperature
  • Satellite Maps
  • Weather Map
  • Weather Widgets
  • user-avatar
    Login

    Hourly Weather Berat

    Today, 6 December, Tuesday

    Time Temperature Precipitation Wind Pressure Humidity
    00:00 +8°C° 0 mm 2 mps 754 mmHg 81%
    01:00 +8°C° 0 mm 2 mps 754 mmHg 81%
    02:00 +7°C° 0 mm 2 mps 753 mmHg 81%
    03:00 +7°C° 0 mm 2 mps 753 mmHg 82%
    04:00 +8°C° 0 mm 1 mps 753 mmHg 83%
    05:00 +8°C° 0 mm 1 mps 753 mmHg 83%
    06:00 +8°C° 0 mm 1 mps 752 mmHg 84%
    07:00 +8°C° 0 mm 1 mps 752 mmHg 84%
    08:00 +10°C° 0 mm 1 mps 752 mmHg 80%
    09:00 +12°C° 0 mm 1 mps 753 mmHg 75%
    10:00 +13°C° 0 mm 1 mps 753 mmHg 70%
    11:00 +14°C° 0 mm 1 mps 752 mmHg 69%
    12:00 +14°C° 0 mm 1 mps 752 mmHg 68%
    13:00 +14°C° 0 mm 1 mps 752 mmHg 67%
    14:00 +13°C° 0 mm 1 mps 752 mmHg 73%
    15:00 +12°C° 0 mm 1 mps 752 mmHg 80%
    16:00 +11°C° 0 mm 1 mps 752 mmHg 86%
    17:00 +10°C° 0 mm 1 mps 752 mmHg 87%
    18:00 +9°C° 0 mm 1 mps 752 mmHg 89%
    19:00 +9°C° 0 mm 1 mps 752 mmHg 91%
    20:00 +8°C° 0 mm 1 mps 752 mmHg 90%
    21:00 +8°C° 0 mm 1 mps 752 mmHg 90%
    22:00 +8°C° 0 mm 1 mps 752 mmHg 90%
    23:00 +8°C° 0 mm 1 mps 753 mmHg 89%

    Tomorrow, 7 December, Wednesday

    Time Temperature Precipitation Wind Pressure Humidity
    00:00 +8°C° 0 mm 1 mps 753 mmHg 89%
    01:00 +8°C° 0 mm 1 mps 753 mmHg 88%
    02:00 +8°C° 0 mm 1 mps 753 mmHg 87%
    03:00 +8°C° 0 mm 1 mps 753 mmHg 87%
    04:00 +8°C° 0 mm 1 mps 753 mmHg 86%
    05:00 +8°C° 0 mm 1 mps 753 mmHg 87%
    06:00 +6°C° 0 mm 2 mps 753 mmHg 87%
    07:00 +6°C° 0 mm 2 mps 753 mmHg 87%
    08:00 +8°C° 0 mm 2 mps 754 mmHg 79%
    09:00 +10°C° 0 mm 2 mps 754 mmHg 71%
    10:00 +13°C° 0 mm 2 mps 754 mmHg 63%
    11:00 +13°C° 0 mm 2 mps 754 mmHg 59%
    12:00 +14°C° 0 mm 2 mps 754 mmHg 54%
    13:00 +14°C° 0 mm 2 mps 754 mmHg 50%
    14:00 +13°C° 0 mm 2 mps 754 mmHg 54%
    15:00 +10°C° 0 mm 2 mps 755 mmHg 59%
    16:00 +9°C° 0 mm 2 mps 755 mmHg 63%
    17:00 +8°C° 0 mm 2 mps 755 mmHg 64%
    18:00 +7°C° 0 mm 3 mps 756 mmHg 64%
    19:00 +5°C° 0 mm 3 mps 757 mmHg 64%
    20:00 +5°C° 0 mm 3 mps 757 mmHg 64%
    21:00 +5°C° 0 mm 3 mps 757 mmHg 65%
    22:00 +4°C° 0 mm 3 mps 758 mmHg 65%
    23:00 +4°C° 0 mm 3 mps 758 mmHg 65%

    Day after tomorrow, 8 December, Thursday

    Time Temperature Precipitation Wind Pressure Humidity
    00:00 +4°C° 0 mm 3 mps 758 mmHg 66%
    01:00 +4°C° 0 mm 3 mps 758 mmHg 67%
    02:00 +3°C° 0 mm 3 mps 758 mmHg 67%
    03:00 +3°C° 0 mm 3 mps 758 mmHg 67%
    04:00 +3°C° 0 mm 3 mps 758 mmHg 68%
    05:00 +3°C° 0 mm 3 mps 758 mmHg 68%
    06:00 +4°C° 0 mm 2 mps 759 mmHg 68%
    07:00 +4°C° 0 mm 2 mps 759 mmHg 69%
    08:00 +6°C° 0 mm 2 mps 759 mmHg 63%
    09:00 +8°C° 0 mm 2 mps 759 mmHg 57%
    10:00 +10°C° 0 mm 2 mps 759 mmHg 51%
    11:00 +12°C° 0 mm 1 mps 759 mmHg 48%
    12:00 +13°C° 0 mm 1 mps 758 mmHg 44%
    13:00 +13°C° 0 mm 0 mps 758 mmHg 41%
    14:00 +12°C° 0 mm 1 mps 758 mmHg 49%
    15:00 +10°C° 0 mm 1 mps 758 mmHg 57%
    16:00 +8°C° 0 mm 1 mps 757 mmHg 65%
    17:00 +7°C° 0 mm 1 mps 757 mmHg 66%
    18:00 +7°C° 0 mm 1 mps 757 mmHg 66%
    19:00 +6°C° 0 mm 1 mps 757 mmHg 67%
    20:00 +6°C° 0 mm 1 mps 757 mmHg 64%
    21:00 +5°C° 0 mm 1 mps 757 mmHg 60%
    22:00 +5°C° 0 mm 1 mps 757 mmHg 57%
    23:00 +5°C° 0 mm 1 mps 757 mmHg 54%

    9 December, Friday

    Time Temperature Precipitation Wind Pressure Humidity
    00:00 +5°C° 0 mm 1 mps 757 mmHg 51%
    01:00 +5°C° 0 mm 1 mps 757 mmHg 48%
    02:00 +5°C° 0 mm 1 mps 756 mmHg 46%
    03:00 +5°C° 0 mm 1 mps 756 mmHg 45%
    04:00 +4°C° 0 mm 1 mps 756 mmHg 43%
    05:00 +4°C° 0 mm 1 mps 756 mmHg 41%
    06:00 +4°C° 0 mm 1 mps 756 mmHg 39%
    07:00 +4°C° 0 mm 1 mps 756 mmHg 37%
    08:00 +7°C° 0 mm 1 mps 756 mmHg 33%
    09:00 +10°C° 0 mm 1 mps 756 mmHg 29%
    10:00 +13°C° 0 mm 1 mps 756 mmHg 25%
    11:00 +13°C° 0 mm 1 mps 755 mmHg 28%
    12:00 +13°C° 0 mm 2 mps 755 mmHg 31%
    13:00 +14°C° 0 mm 2 mps 755 mmHg 34%
    14:00 +12°C° 0 mm 2 mps 754 mmHg 44%
    15:00 +8°C° 0 mm 2 mps 754 mmHg 55%
    16:00 +6°C° 0 mm 2 mps 754 mmHg 65%
    17:00 +6°C° 0 mm 2 mps 754 mmHg 65%
    18:00 +5°C° 0 mm 2 mps 754 mmHg 64%
    19:00 +6°C° 0 mm 1 mps 754 mmHg 64%
    20:00 +6°C° 0 mm 1 mps 754 mmHg 62%
    21:00 +6°C° 0 mm 1 mps 754 mmHg 59%
    22:00 +6°C° 0 mm 1 mps 754 mmHg 57%
    23:00 +6°C° 0 mm 1 mps 754 mmHg 55%

    10 December, Saturday

    Time Temperature Precipitation Wind Pressure Humidity
    00:00 +6°C° 0 mm 1 mps 754 mmHg 53%
    01:00 +6°C° 0 mm 1 mps 753 mmHg 50%
    02:00 +5°C° 0 mm 2 mps 753 mmHg 49%
    03:00 +5°C° 0 mm 2 mps 753 mmHg 47%
    04:00 +5°C° 0 mm 2 mps 753 mmHg 45%
    05:00 +5°C° 0 mm 2 mps 753 mmHg 43%
    06:00 +5°C° 0 mm 2 mps 753 mmHg 42%
    07:00 +5°C° 0 mm 2 mps 753 mmHg 41%
    08:00 +8°C° 0 mm 2 mps 753 mmHg 39%
    09:00 +10°C° 0 mm 2 mps 753 mmHg 37%
    10:00 +14°C° 0 mm 2 mps 753 mmHg 35%
    11:00 +15°C° 0 mm 1 mps 753 mmHg 36%
    12:00 +16°C° 0 mm 1 mps 753 mmHg 37%
    13:00 +18°C° 0 mm 1 mps 752 mmHg 38%
    14:00 +14°C° 0 mm 1 mps 752 mmHg 47%
    15:00 +12°C° 0 mm 1 mps 752 mmHg 56%
    16:00 +9°C° 0 mm 1 mps 752 mmHg 66%
    17:00 +9°C° 0 mm 1 mps 752 mmHg 67%
    18:00 +8°C° 0 mm 1 mps 752 mmHg 69%
    19:00 +7°C° 0 mm 1 mps 752 mmHg 70%
    20:00 +7°C° 0 mm 1 mps 752 mmHg 71%
    21:00 +6°C° 0 mm 0 mps 752 mmHg 72%
    22:00 +6°C° 0 mm 0 mps 752 mmHg 72%
    23:00 +6°C° 0 mm 0 mps 752 mmHg 73%

    11 December, Sunday

    Time Temperature Precipitation Wind Pressure Humidity
    00:00 +6°C° 0 mm 0 mps 752 mmHg 74%
    01:00 +6°C° 0 mm 0 mps 751 mmHg 76%
    02:00 +5°C° 0 mm 0 mps 751 mmHg 76%
    03:00 +5°C° 0 mm 0 mps 751 mmHg 75%
    04:00 +5°C° 0 mm 0 mps 751 mmHg 75%
    05:00 +5°C° 0 mm 0 mps 750 mmHg 75%
    06:00 +5°C° 0 mm 0 mps 750 mmHg 75%
    07:00 +5°C° 0 mm 0 mps 750 mmHg 75%
    08:00 +8°C° 0 mm 0 mps 750 mmHg 63%
    09:00 +11°C° 0 mm 0 mps 750 mmHg 51%
    10:00 +14°C° 0 mm 0 mps 751 mmHg 39%
    11:00 +15°C° 0 mm 0 mps 750 mmHg 40%
    12:00 +16°C° 0 mm 1 mps 749 mmHg 40%
    13:00 +18°C° 0 mm 1 mps 749 mmHg 40%
    14:00 +14°C° 0 mm 1 mps 749 mmHg 50%
    15:00 +12°C° 0 mm 1 mps 748 mmHg 60%
    16:00 +9°C° 0 mm 1 mps 748 mmHg 70%
    17:00 +8°C° 0 mm 0 mps 748 mmHg 71%
    18:00 +7°C° 0 mm 0 mps 747 mmHg 72%
    19:00 +6°C° 0 mm 0 mps 747 mmHg 73%
    20:00 +6°C° 0 mm 0 mps 747 mmHg 74%
    21:00 +6°C° 0 mm 0 mps 747 mmHg 75%
    22:00 +6°C° 0 mm 0 mps 747 mmHg 75%
    23:00 +5°C° 0 mm 0 mps 746 mmHg 74%
    Show more